Regional Weather Roundup
Issued by NWS Nashville, TN

Current Version | Previous Version | Text Only | Print | Product List | Glossary Off
Versions: 1 2 3 4 5 6 7 8 9 10 11 12 13 14 15 16 17 18 19 20 21 22 23 24 25 26 27 28 29 30 31 32 33 34 35 36 37 38 39 40 41 42 43 44 45 46 47 48 49 50

000
ASUS44 KOHX 240510
RWROHX
MIDDLE TENNESSEE HOURLY WEATHER ROUNDUP
NATIONAL WEATHER SERVICE NASHVILLE TN
1200 AM CDT TUE OCT 24 2017

NOTE: "FAIR" INDICATES FEW OR NO CLOUDS BELOW 12,000 FEET WITH
NO SIGNIFICANT WEATHER AND/OR OBSTRUCTIONS TO VISIBILITY.

* THESE REPORTS ARE NOT UNDER NWS QUALITY CONTROL AND MAY NOT
  REPORT WEATHER SUCH AS PRECIPITATION AND FOG.


TNZ005>011-023>034-057-059-062>066-078-080-240600
...NORTHERN MIDDLE TENNESSEE...

CITY           SKY/WX    TMP DP  RH WIND       PRES   REMARKS
CLARKSVILLE    CLOUDY    56  45  66 SW9       29.84R
CROSSVILLE     CLEAR     46  44  93 VRB3      29.92F
DICKSON          N/A     51  45  80 SW7       29.85F
LEBANON        CLEAR     51  46  83 S10       29.84
NASHVILLE      PTCLDY    51  46  83 S7        29.85F
PORTLAND       CLOUDY    52  50  93 S13G18    29.82F
SMYRNA         CLEAR     49  46  90 S7        29.88
SPARTA         CLEAR     48  46  93 S5        29.89F
SPRINGFIELD    CLOUDY    54  48  82 S10       29.82S
WEST NASHVILLE CLOUDY    54  48  82 SW8       29.82F
$$
TNZ056-058-060-061-075>077-079-093>097-240600
...SOUTHERN MIDDLE TENNESSEE...

CITY           SKY/WX    TMP DP  RH WIND       PRES   REMARKS
COLUMBIA       CLEAR     54  46  76 S10       29.86F
FAYETTEVILLE   CLEAR     52  50  93 S8        29.92F
MURFREESBORO   CLEAR     51  46  83 S6        29.87F
PULASKI        CLEAR     46  46 100 SE3       29.91F
SHELBYVILLE    CLEAR     50  46  87 S8        29.89F
TULLAHOMA      CLEAR     46  45  93 S3        29.92F
WINCHESTER     CLEAR     46  46 100 S5          N/A
$$


...KEY TO REMARKS...
VSB - VISIBILITY IN MILES
WCI - WIND CHILL INDEX
HX  - HEAT INDEX




USA.gov is the U.S. government's official web portal to all federal, state and local government web resources and services.